DW7854 Weather Reports


Display with metric or nautical units.
time (UTC)temp
F
wind
direction
speed
MPH
gust
MPH
rain 1hr
in
rain 24hr
in
rain mn
in
humidity
%
barometer
mb
20260502221505 75 334 5.0 10.0 0.00 0.00 0.00 33 1016.9
20260502221128 76 323 4.0 8.0 0.00 0.00 0.00 33 1016.6
20260502220228 76 323 5.0 11.0 0.00 0.00 0.00 35 1016.7
20260502215328 76 311 5.0 12.0 0.00 0.00 0.00 33 1016.7
20260502214608 76 11 3.0 7.0 0.00 0.00 0.00 34 1017.0
20260502214428 76 301 3.0 8.0 0.00 0.00 0.00 34 1016.7
20260502213528 76 320 4.0 8.0 0.00 0.00 0.00 35 1016.8
20260502213113 76 331 5.0 10.0 0.00 0.00 0.00 33 1017.2
20260502211728 75 321 3.0 8.0 0.00 0.00 0.00 37 1016.9
20260502211605 75 314 1.0 8.0 0.00 0.00 0.00 36 1017.3
20260502210828 75 355 4.0 8.0 0.00 0.00 0.00 35 1017.0
20260502210020 75 56 2.0 10.0 0.00 0.00 0.00 36 1017.5
20260502205928 75 325 2.0 10.0 0.00 0.00 0.00 33 1017.1
20260502205028 74 326 3.0 8.0 0.00 0.00 0.00 36 1017.2
20260502204618 74 316 5.0 8.0 0.00 0.00 0.00 35 1017.7
20260502204128 74 316 3.0 7.0 0.00 0.00 0.00 36 1017.4
20260502203228 74 314 4.0 8.0 0.00 0.00 0.00 37 1017.6
20260502203014 74 349 3.0 8.0 0.00 0.00 0.00 37 1018.0
20260502202328 74 312 4.0 13.0 0.00 0.00 0.00 35 1017.7
20260502201604 74 244 2.0 9.0 0.00 0.00 0.00 36 1018.1
20260502201428 75 319 4.0 8.0 0.00 0.00 0.00 36 1017.8
20260502200528 75 326 3.0 10.0 0.00 0.00 0.00 35 1017.9
20260502200106 74 270 2.0 11.0 0.00 0.00 0.00 36 1018.4
20260502195628 74 318 3.0 9.0 0.00 0.00 0.00 35 1018.1
20260502194728 74 334 3.0 9.0 0.00 0.00 0.00 38 1018.1
20260502194603 73 322 4.0 9.0 0.00 0.00 0.00 38 1018.6
20260502193828 74 279 2.0 8.0 0.00 0.00 0.00 36 1018.3
20260502193003 74 200 3.0 7.0 0.00 0.00 0.00 39 1018.7
20260502192028 74 263 2.0 5.0 0.00 0.00 0.00 38 1018.4
20260502191510 74 224 1.0 6.0 0.00 0.00 0.00 41 1018.8
20260502191128 74 349 4.0 11.0 0.00 0.00 0.00 37 1018.4
20260502190227 74 312 3.0 8.0 0.00 0.00 0.00 38 1018.6
20260502190107 73 298 4.0 8.0 0.00 0.00 0.00 36 1018.9
20260502185328 74 333 3.0 6.0 0.00 0.00 0.00 37 1018.6
20260502184513 74 18 3.0 6.0 0.00 0.00 0.00 35 1019.2
20260502184428 74 302 3.0 9.0 0.00 0.00 0.00 35 1018.7
20260502183527 74 268 3.0 9.0 0.00 0.00 0.00 43 1018.8
20260502183009 73 268 2.0 9.0 0.00 0.00 0.00 43 1019.3
20260502182628 73 320 3.0 9.0 0.00 0.00 0.00 37 1018.9
20260502181727 73 271 2.0 6.0 0.00 0.00 0.00 38 1019.0
20260502181609 72 219 2.0 6.0 0.00 0.00 0.00 36 1019.4
20260502180827 72 318 3.0 7.0 0.00 0.00 0.00 39 1019.1
20260502170110 70 277 4.0 9.0 0.00 0.00 0.00 40 1020.1
20260502163827 71 45 2.0 7.0 0.00 0.00 0.00 41 1019.6
20260502163103 70 93 0.0 9.0 0.00 0.00 0.00 39 1020.0
20260502162927 70 330 4.0 8.0 0.00 0.00 0.00 38 1019.6
20260502162027 70 317 3.0 8.0 0.00 0.00 0.00 41 1019.7
20260502161503 70 333 4.0 9.0 0.00 0.00 0.00 42 1020.1
20260502160227 70 343 2.0 6.0 0.00 0.00 0.00 44 1019.7
20260502160105 69 5 1.0 6.0 0.00 0.00 0.00 47 1020.1
20260502151611 67 22 2.0 5.0 0.00 0.00 0.00 60 1019.9
20260502150106 66 47 4.0 8.0 0.00 0.00 0.00 62 1019.9
20260502140105 60 128 0.0 2.0 0.00 0.00 0.00 97 1019.8
20260502130227 53 60 0.0 1.0 0.00 0.00 0.00 97 1019.0
20260502123527 50 76 0.0 1.0 0.00 0.00 0.00 96 1018.5
20260502123003 49 76 0.0 0.0 0.00 0.00 0.00 96 1018.8
20260502122627 49 0 0.0 0.0 0.00 0.00 0.00 96 1018.3
20260502121727 49 0 0.0 0.0 0.00 0.00 0.00 96 1018.2
20260502121530 48 76 0.0 0.0 0.00 0.00 0.00 95 1018.6
20260502120827 49 19 0.0 1.0 0.00 0.00 0.00 95 1018.0
20260502120106 48 10 0.0 1.0 0.00 0.00 0.00 95 1018.4
20260502115927 49 20 0.0 1.0 0.00 0.00 0.00 95 1017.9
20260502114605 48 329 0.0 0.0 0.00 0.00 0.00 95 1018.2
20260502114127 49 0 0.0 0.0 0.00 0.00 0.00 95 1017.7
20260502113227 49 0 0.0 0.0 0.00 0.00 0.00 95 1017.7
20260502113004 49 329 0.0 0.0 0.00 0.00 0.00 95 1018.2
20260502112327 49 328 0.0 1.0 0.00 0.00 0.00 95 1017.7
20260502111625 49 329 0.0 2.0 0.00 0.00 0.00 95 1018.0
20260502111427 49 329 1.0 2.0 0.00 0.00 0.00 95 1017.5
20260502110008 49 329 0.0 0.0 0.00 0.00 0.00 95 1017.7
20260502105627 50 0 0.0 0.0 0.00 0.00 0.00 95 1017.3
20260502104727 50 328 0.0 1.0 0.00 0.00 0.00 94 1017.2
20260502104505 49 329 0.0 1.0 0.00 0.00 0.00 94 1017.7
20260502103827 50 0 0.0 0.0 0.00 0.00 0.00 95 1017.2
20260502103005 50 329 0.0 0.0 0.00 0.00 0.00 95 1017.6
20260502102927 50 0 0.0 0.0 0.00 0.00 0.00 95 1017.2
20260502101512 50 329 0.0 1.0 0.00 0.00 0.00 95 1017.4
20260502101127 50 328 0.0 1.0 0.00 0.00 0.00 95 1017.0
20260502100227 50 0 0.0 0.0 0.00 0.00 0.00 94 1017.0
20260502090105 51 329 0.0 0.0 0.00 0.00 0.00 94 1016.9
20260502080103 52 329 0.0 1.0 0.00 0.00 0.00 93 1016.7
20260502071127 54 328 0.0 1.0 0.00 0.00 0.00 93 1016.7
20260502070227 54 328 0.0 1.0 0.00 0.00 0.00 92 1016.7
20260502070019 54 329 0.0 1.0 0.00 0.00 0.00 92 1017.1
20260502065327 55 0 0.0 0.0 0.00 0.00 0.00 92 1016.8
20260502064605 55 329 0.0 0.0 0.00 0.00 0.00 93 1017.2
20260502064427 55 0 0.0 0.0 0.00 0.00 0.00 93 1016.8
20260502063527 55 0 0.0 0.0 0.00 0.00 0.00 93 1016.9
20260502063006 55 329 0.0 0.0 0.00 0.00 0.00 93 1017.3
20260502061727 55 0 0.0 0.0 0.00 0.00 0.00 92 1016.8
20260502061603 55 329 0.0 0.0 0.00 0.00 0.00 92 1017.3
20260502060827 56 0 0.0 0.0 0.00 0.00 0.00 92 1016.8
20260502060004 55 329 0.0 0.0 0.00 0.00 0.00 92 1017.3
20260502055027 56 328 0.0 1.0 0.00 0.00 0.00 92 1016.9
20260502054503 55 329 0.0 0.0 0.00 0.00 0.00 92 1017.3
20260502054127 56 0 0.0 0.0 0.00 0.00 0.00 92 1016.9
20260502053227 56 0 0.0 0.0 0.00 0.00 0.00 91 1016.9
20260502053003 56 329 0.0 0.0 0.00 0.00 0.00 91 1017.4
20260502052327 56 0 0.0 0.0 0.00 0.00 0.00 91 1016.9
20260502051607 56 329 0.0 0.0 0.00 0.00 0.00 91 1017.3
20260502051427 56 0 0.0 0.0 0.00 0.00 0.00 91 1016.9
20260502050527 56 328 0.0 1.0 0.00 0.00 0.00 91 1016.7
20260502050008 56 329 0.0 0.0 0.00 0.01 0.00 91 1017.1
20260502045627 57 0 0.0 0.0 0.00 0.00 0.00 90 1016.8
20260502044727 57 0 0.0 0.0 0.00 0.00 0.00 90 1016.7
20260502044604 56 329 0.0 0.0 0.00 0.01 0.00 90 1017.1
20260502043827 57 0 0.0 0.0 0.00 0.00 0.00 90 1016.4
20260502043004 57 329 0.0 0.0 0.00 0.01 0.00 89 1016.8
20260502042926 57 0 0.0 0.0 0.00 0.01 0.00 89 1016.4
20260502042026 57 329 0.0 1.0 0.00 0.01 0.00 88 1016.4
20260502041606 57 329 0.0 1.0 0.00 0.01 0.00 88 1016.9
20260502041126 58 328 0.0 1.0 0.00 0.01 0.00 88 1016.5
20260502040227 58 0 0.0 0.0 0.00 0.01 0.00 88 1016.5
20260502040008 58 329 0.0 0.0 0.00 0.02 0.00 88 1016.9
20260502035327 58 0 0.0 0.0 0.00 0.01 0.00 87 1016.5
20260502034504 58 329 0.0 0.0 0.00 0.02 0.00 87 1017.0
20260502034426 58 0 0.0 0.0 0.00 0.01 0.00 87 1016.6
20260502033526 59 0 0.0 0.0 0.00 0.02 0.00 87 1016.5
20260502033102 58 329 0.0 0.0 0.00 0.02 0.00 87 1017.0
20260502032627 59 0 0.0 0.0 0.00 0.02 0.00 88 1016.7
20260502031726 59 0 0.0 0.0 0.00 0.02 0.00 88 1016.6
20260502031504 58 329 0.0 1.0 0.00 0.02 0.00 88 1017.1
20260502030008 59 329 0.0 1.0 0.00 0.02 0.00 87 1016.9
20260502025926 59 328 0.0 1.0 0.00 0.02 0.00 87 1016.5
20260502025026 59 0 0.0 0.0 0.00 0.02 0.00 87 1016.3
20260502024507 59 329 0.0 0.0 0.00 0.02 0.00 86 1016.6
20260502024126 59 0 0.0 0.0 0.00 0.02 0.00 85 1016.1
20260502023226 59 0 0.0 0.0 0.00 0.02 0.00 85 1015.9
20260502023104 59 329 0.0 0.0 0.00 0.02 0.00 85 1016.3
20260502021503 59 329 0.0 0.0 0.00 0.02 0.00 84 1016.0
20260502021426 60 0 0.0 0.0 0.00 0.02 0.00 84 1015.6
20260502020526 60 0 0.0 0.0 0.00 0.02 0.00 82 1015.5
20260502015626 60 0 0.0 0.0 0.00 0.02 0.00 83 1015.4
20260502014726 61 0 0.0 0.0 0.00 0.02 0.00 82 1015.3
20260502014602 60 329 0.0 0.0 0.00 0.02 0.00 82 1015.6
20260502013826 61 0 0.0 0.0 0.00 0.02 0.00 82 1015.2
20260502013105 61 329 0.0 0.0 0.00 0.02 0.00 81 1015.4
20260502012926 61 0 0.0 0.0 0.00 0.02 0.00 81 1015.0
20260502012026 62 328 0.0 1.0 0.00 0.02 0.00 80 1014.8
20260502011508 61 329 0.0 0.0 0.00 0.02 0.00 79 1015.2
20260502011126 62 0 0.0 0.0 0.00 0.02 0.00 79 1014.7
20260502010226 62 0 0.0 0.0 0.00 0.02 0.00 78 1014.7
20260502010104 62 329 0.0 0.0 0.00 0.02 0.00 78 1015.0
20260502005326 63 0 0.0 0.0 0.00 0.02 0.00 78 1014.7
20260502004515 63 329 0.0 1.0 0.00 0.02 0.00 77 1015.0
20260502004426 63 328 0.0 1.0 0.00 0.02 0.00 77 1014.6
20260502003526 64 0 0.0 0.0 0.00 0.02 0.00 75 1014.4
20260502003009 64 329 0.0 1.0 0.00 0.02 0.00 75 1014.8
20260502002626 64 291 0.0 1.0 0.00 0.02 0.00 74 1014.4
20260502001726 65 0 0.0 0.0 0.00 0.02 0.00 72 1014.3
20260502001502 65 238 0.0 1.0 0.00 0.02 0.00 72 1014.7
20260502000826 65 0 0.0 0.0 0.00 0.02 0.00 72 1014.4
20260502000003 65 272 0.0 0.0 0.00 0.02 0.00 68 1014.8
20260501235926 66 0 0.0 0.0 0.00 0.02 0.00 68 1014.4
20260501235026 66 0 0.0 0.0 0.00 0.02 0.00 67 1014.2
20260501234504 65 267 0.0 0.0 0.00 0.02 0.00 66 1014.5
20260501234126 66 0 0.0 0.0 0.00 0.02 0.00 65 1013.9
20260501233226 66 113 0.0 1.0 0.00 0.02 0.00 63 1013.9
20260501233006 66 113 0.0 2.0 0.00 0.02 0.00 63 1014.2
20260501232326 67 136 1.0 4.0 0.00 0.02 0.00 61 1013.8
20260501231507 67 125 2.0 4.0 0.00 0.02 0.00 59 1014.3
20260501231426 67 136 1.0 5.0 0.00 0.02 0.00 59 1013.9
20260501230526 67 109 2.0 5.0 0.00 0.02 0.00 58 1013.5
20260501230004 67 123 2.0 5.0 0.00 0.02 0.00 57 1013.7
20260501225626 68 84 2.0 4.0 0.00 0.02 0.00 59 1013.2
20260501224726 68 71 2.0 8.0 0.00 0.02 0.00 56 1012.6
20260501224603 67 155 2.0 8.0 0.00 0.02 0.00 57 1012.9
20260501223826 68 91 1.0 5.0 0.00 0.02 0.00 61 1012.5
20260501223007 67 100 0.0 3.0 0.00 0.02 0.00 64 1013.2
20260501222926 67 93 1.0 3.0 0.00 0.02 0.00 63 1012.8
20260501222026 67 90 0.0 3.0 0.00 0.02 0.00 61 1012.8